Location: Bruderhein
(53.8035°N, 112.9265°W)
Time: 01:19:50
(UTC+00:00)

KKS-1 - Pass Details

Date: 02 April 2023
Orbit: 633 x 644 km, 98.2° (Epoch: 31 May)

Event Time Altitude Azimuth Distance (km) Brightness Sun altitude
Rises 08:02:15 0° 5° (N) 2,946 ? -31.1°
Reaches altitude 10° 08:05:11 10° 344° (NNW) 2,032 ? -31.0°
Enters shadow 08:07:51 16° 306° (NW) 1,666 ? -30.9°
